CW8919 Weather Reports


time (UTC)temp
C
wind
direction
speed
KPH
gust
KPH
rain 1hr
cm
rain 24hr
cm
rain mn
cm
humidity
%
barometer
mb
20210920045927 17 322 1.6 22.5 0.00 0.00 0.00 84 1020.7
20210920044428 18 76 6.4 25.7 0.00 0.00 0.00 83 1020.7
20210920042928 18 16 9.7 24.1 0.00 0.00 0.00 83 1020.4
20210920041428 18 343 3.2 30.6 0.00 0.00 0.00 83 1020.3
20210920035926 18 349 8.0 29.0 0.00 0.00 0.00 83 1020.3
20210920034430 18 348 6.4 27.4 0.00 0.00 0.00 83 1020.2
20210920032926 18 348 14.5 33.8 0.00 0.00 0.00 83 1020.1
20210920031425 18 349 6.4 33.8 0.00 0.00 0.00 83 1020.1
20210920025935 18 328 11.3 35.4 0.00 0.00 0.00 83 1020.2
20210920024437 18 324 24.1 48.3 0.00 0.00 0.00 83 1020.2
20210920022933 18 326 20.9 45.1 0.00 0.00 0.00 83 1020.0
20210920021433 18 347 25.7 49.9 0.00 0.00 0.00 83 1019.9
20210920015936 18 328 16.1 41.8 0.00 0.00 0.00 82 1019.9
20210920014437 18 5 16.1 45.1 0.00 0.00 0.00 81 1020.1
20210920012931 18 45 8.0 46.7 0.00 0.00 0.00 81 1020.1
20210920011436 18 340 17.7 43.5 0.00 0.00 0.00 81 1020.2
20210920005925 18 349 20.9 41.8 0.00 0.00 0.00 82 1020.3
20210920004425 18 357 11.3 41.8 0.00 0.00 0.00 81 1020.5
20210920002925 18 323 16.1 38.6 0.00 0.00 0.00 82 1020.4
20210920001427 18 7 22.5 46.7 0.00 0.00 0.00 82 1020.4
20210919235925 18 16 22.5 45.1 0.00 0.00 0.00 82 1020.5
20210919234429 18 347 17.7 56.3 0.00 0.00 0.00 82 1020.5
20210919232924 18 351 16.1 45.1 0.00 0.00 0.00 82 1020.5
20210919231425 18 341 20.9 43.5 0.00 0.00 0.00 82 1020.6
20210919225924 18 333 17.7 43.5 0.00 0.00 0.00 81 1020.7
20210919224430 18 334 24.1 48.3 0.00 0.00 0.00 80 1020.7
20210919222924 18 340 17.7 41.8 0.00 0.00 0.00 79 1020.8
20210919221442 18 11 20.9 40.2 0.00 0.00 0.00 79 1020.8
20210919215921 18 328 17.7 45.1 0.00 0.00 0.00 79 1020.5
20210919214429 18 8 20.9 61.2 0.00 0.00 0.00 78 1020.8
20210919212924 18 353 12.9 43.5 0.00 0.00 0.00 77 1020.9
20210919211427 18 334 24.1 46.7 0.00 0.00 0.00 77 1020.7
20210919205923 19 357 19.3 43.5 0.00 0.00 0.00 77 1020.6
20210919204427 19 336 19.3 37.0 0.00 0.00 0.00 76 1020.5
20210919202923 19 351 22.5 43.5 0.00 0.00 0.00 75 1020.3
20210919201426 19 344 20.9 46.7 0.00 0.00 0.00 74 1020.3
20210919195928 19 355 22.5 41.8 0.00 0.00 0.00 72 1020.3
20210919194430 19 320 17.7 43.5 0.00 0.00 0.00 71 1020.1
20210919192930 20 324 19.3 37.0 0.00 0.00 0.00 70 1020.2
20210919191433 20 9 19.3 35.4 0.00 0.00 0.00 69 1020.1
20210919185922 20 354 22.5 48.3 0.00 0.00 0.00 67 1019.9
20210919184426 20 346 22.5 46.7 0.00 0.00 0.00 68 1019.9
20210919182922 20 359 17.7 38.6 0.00 0.00 0.00 68 1019.8
20210919181424 21 359 17.7 37.0 0.00 0.00 0.00 68 1019.8
20210919175926 21 344 22.5 46.7 0.00 0.00 0.00 66 1019.5
20210919174430 21 359 19.3 41.8 0.00 0.00 0.00 65 1019.4
20210919172923 21 316 24.1 46.7 0.00 0.00 0.00 64 1019.4
20210919171426 22 323 14.5 43.5 0.00 0.00 0.00 61 1019.5
20210919165938 22 334 14.5 38.6 0.00 0.00 0.00 60 1019.7
20210919164425 23 349 17.7 40.2 0.00 0.00 0.00 59 1019.7
20210919162939 23 16 11.3 38.6 0.00 0.00 0.00 59 1019.7
20210919161442 23 343 19.3 38.6 0.00 0.00 0.00 57 1019.8
20210919155927 23 37 11.3 30.6 0.00 0.00 0.00 56 1019.7
20210919154431 24 360 9.7 25.7 0.00 0.00 0.00 56 1019.7
20210919152929 25 338 14.5 37.0 0.00 0.00 0.00 53 1019.7
20210919151434 25 27 9.7 27.4 0.00 0.00 0.00 52 1019.7
20210919145925 25 353 11.3 33.8 0.00 0.00 0.00 50 1019.7
20210919144427 25 347 11.3 29.0 0.00 0.00 0.00 49 1019.7
20210919142929 26 299 11.3 33.8 0.00 0.00 0.00 46 1019.8
20210919141426 27 351 4.8 20.9 0.00 0.00 0.00 42 1019.7
20210919135927 27 19 9.7 22.5 0.00 0.00 0.00 38 1019.8
20210919134430 27 355 3.2 19.3 0.00 0.00 0.00 41 1020.1
20210919132932 26 18 3.2 19.3 0.00 0.00 0.00 41 1020.2
20210919131436 26 18 16.1 30.6 0.00 0.00 0.00 41 1020.4
20210919125924 26 320 12.9 24.1 0.00 0.00 0.00 41 1020.4
20210919124430 25 16 9.7 25.7 0.00 0.00 0.00 43 1020.4
20210919122926 25 15 19.3 38.6 0.00 0.00 0.00 43 1020.4
20210919121429 25 8 14.5 32.2 0.00 0.00 0.00 45 1020.7
20210919115933 25 330 9.7 30.6 0.00 0.00 0.00 47 1020.7
20210919114438 25 20 16.1 27.4 0.00 0.00 0.00 46 1020.7
20210919112938 25 357 4.8 25.7 0.00 0.00 0.00 48 1020.9
20210919111427 24 341 8.0 20.9 0.00 0.00 0.00 50 1021.1
20210919105934 23 321 8.0 35.4 0.00 0.00 0.00 52 1021.3
20210919104438 24 3 9.7 25.7 0.00 0.00 0.00 53 1021.4
20210919102928 23 42 8.0 27.4 0.00 0.00 0.00 57 1021.4